Date String (YYYY-MM-DD hh:mm:ss) UTC,Instrument flags,absolute air pressure of the measurement (hPa),sample flow rate (lpm),inlet stack bypass flow (lpm),air temperature of the measurement (°C),ambient temperature measured by the external sensor (°C),aerosol sample conditioner tube jacket temperature (°C),OPC LED temperature (°C),internal box temperature (°C),relative humidity of the measurement (%),span deviation,mass concentration of particles derived from Lorenz-Mie calculation of OPC scattering (μg/m³),mass concentration of particles derived from Lorenz-Mie calculation of OPC scattering (μg/m³),mass concentration of particles derived from Lorenz-Mie calculation of OPC scattering (μg/m³)
DateTimeUTC,F1_M11,P_M11,Q1_M11,Q2_M11,T1_M11,T2_M11,T3_M11,T4_M11,T5_M11,U1_M11,ZSPAN_M11,X2_M11,X0_M11,X1_M11
2024-03-23 18:00:00,SystemResetWarning,0822.0,4.99,000.00,021.9,021.3,000.0,030.2,023.7,20.0,0000.0,0006.30,0024.43,0004.73
2024-03-23 18:01:00,SystemResetWarning,0822.0,5.00,000.00,021.9,021.3,000.0,030.2,023.7,20.0,0000.0,0006.29,0024.31,0004.70
2024-03-23 18:02:00,SystemResetWarning,0822.0,5.00,000.00,021.9,021.3,000.0,030.2,023.7,19.2,0000.0,0006.37,0023.58,0004.69
2024-03-23 18:03:00,SystemResetWarning,0821.7,5.02,000.00,021.9,021.3,000.0,030.2,023.7,19.0,0000.0,0006.34,0023.97,0004.66
2024-03-23 18:04:00,SystemResetWarning,0821.3,4.99,000.00,021.9,021.3,000.0,030.3,023.7,19.0,0000.0,0006.30,0024.65,0004.61
2024-03-23 18:05:00,SystemResetWarning,0821.4,4.99,000.00,021.9,021.3,000.0,030.3,023.7,18.9,0000.0,0006.24,0024.13,0004.58
2024-03-23 18:06:00,SystemResetWarning,0821.3,5.01,000.00,021.9,021.4,000.0,030.3,023.7,18.7,0000.0,0006.24,0023.08,0004.56
2024-03-23 18:07:00,SystemResetWarning,0821.3,5.01,000.00,021.9,021.4,000.0,030.3,023.8,18.8,0000.0,0006.28,0021.27,0004.53
2024-03-23 18:08:00,SystemResetWarning,0821.3,4.98,000.00,021.9,021.4,000.0,030.3,023.8,18.9,0000.0,0006.31,0020.57,0004.51
2024-03-23 18:09:00,SystemResetWarning,0821.3,5.01,000.00,022.0,021.4,000.0,030.3,023.8,19.0,0000.0,0006.29,0018.68,0004.50
2024-03-23 18:10:00,SystemResetWarning,0821.3,5.01,000.00,022.0,021.4,000.0,030.3,023.8,18.8,0000.0,0006.26,0017.72,0004.48
2024-03-23 18:11:00,SystemResetWarning,0821.3,5.00,000.00,022.0,021.4,000.0,030.3,023.8,18.4,0000.0,0006.25,0017.47,0004.46
2024-03-23 18:12:00,SystemResetWarning,0821.3,4.99,000.00,022.0,021.4,000.0,030.3,023.8,18.4,0000.0,0006.22,0017.34,0004.46
2024-03-23 18:13:00,SystemResetWarning,0821.3,4.99,000.00,022.0,021.5,000.0,030.4,023.8,18.4,0000.0,0006.18,0017.89,0004.45
2024-03-23 18:14:00,SystemResetWarning,0821.2,5.01,000.00,022.0,021.5,000.0,030.4,023.9,18.6,0000.0,0006.14,0017.09,0004.44
2024-03-23 18:15:00,SystemResetWarning,0821.2,5.02,000.00,022.0,021.5,000.0,030.4,023.9,18.7,0000.0,0006.14,0016.75,0004.44
2024-03-23 18:16:00,SystemResetWarning,0821.2,5.00,000.00,022.0,021.5,000.0,030.4,023.9,18.9,0000.0,0006.17,0017.17,0004.46
2024-03-23 18:17:00,SystemResetWarning,0821.3,4.99,000.00,022.1,021.5,000.0,030.4,023.9,18.8,0000.0,0006.23,0019.10,0004.49
2024-03-23 18:18:00,SystemResetWarning,0821.2,5.00,000.00,022.1,021.5,000.0,030.4,023.9,19.2,0000.0,0006.22,0019.84,0004.51
2024-03-23 18:19:00,SystemResetWarning,0821.4,5.00,000.00,022.1,021.6,000.0,030.4,023.9,19.1,0000.0,0006.24,0019.89,0004.53
2024-03-23 18:20:00,SystemResetWarning,0821.1,5.01,000.00,022.1,021.6,000.0,030.4,023.9,18.8,0000.0,0006.32,0020.39,0004.56
2024-03-23 18:21:00,SystemResetWarning,0821.0,5.01,000.00,022.1,021.6,000.0,030.5,023.9,18.8,0000.0,0006.36,0019.90,0004.60
2024-03-23 18:22:00,SystemResetWarning,0821.0,4.99,000.00,022.1,021.6,000.0,030.5,024.0,18.9,0000.0,0006.46,0019.75,0004.63
2024-03-23 18:23:00,SystemResetWarning,0821.0,4.99,000.00,022.1,021.6,000.0,030.5,024.0,18.8,0000.0,0006.53,0019.94,0004.67
2024-03-23 18:24:00,SystemResetWarning,0820.8,4.99,000.00,022.2,021.6,000.0,030.5,024.0,18.9,0000.0,0006.53,0020.18,0004.71
2024-03-23 18:25:00,SystemResetWarning,0820.9,5.02,000.00,022.2,021.6,000.0,030.5,024.0,18.6,0000.0,0006.54,0020.64,0004.75
2024-03-23 18:26:00,SystemResetWarning,0820.8,5.00,000.00,022.2,021.6,000.0,030.5,024.0,18.8,0000.0,0006.59,0020.21,0004.79
2024-03-23 18:27:00,SystemResetWarning,0820.8,5.00,000.00,022.2,021.7,000.0,030.5,024.0,18.4,0000.0,0006.55,0020.12,0004.81
2024-03-23 18:28:00,SystemResetWarning,0820.8,5.00,000.00,022.2,021.7,000.0,030.5,024.0,18.3,0000.0,0006.48,0019.09,0004.80
2024-03-23 18:29:00,SystemResetWarning,0820.8,5.01,000.00,022.2,021.7,000.0,030.6,024.1,18.2,0000.0,0006.41,0017.82,0004.80
2024-03-23 18:30:00,SystemResetWarning,0820.7,5.00,000.00,022.2,021.7,000.0,030.6,024.1,17.8,0000.0,0006.33,0017.71,0004.79
2024-03-23 18:31:00,SystemResetWarning,0820.7,4.99,000.00,022.3,021.7,000.0,030.6,024.1,18.3,0000.0,0006.24,0017.43,0004.76
2024-03-23 18:32:00,SystemResetWarning,0820.6,5.00,000.00,022.3,021.8,000.0,030.6,024.1,18.6,0000.0,0006.20,0016.71,0004.75
2024-03-23 18:33:00,SystemResetWarning,0820.6,5.00,000.00,022.3,021.8,000.0,030.6,024.1,18.5,0000.0,0006.15,0016.32,0004.74
2024-03-23 18:34:00,SystemResetWarning,0820.6,5.02,000.00,022.3,021.8,000.0,030.6,024.2,18.6,0000.0,0006.13,0016.43,0004.70
2024-03-23 18:35:00,SystemResetWarning,0820.6,4.99,000.00,022.3,021.8,000.0,030.6,024.2,18.8,0000.0,0006.08,0015.71,0004.67
2024-03-23 18:36:00,SystemResetWarning,0820.5,4.99,000.00,022.3,021.9,000.0,030.7,024.2,18.6,0000.0,0006.06,0015.77,0004.65
2024-03-23 18:37:00,SystemResetWarning,0820.6,5.01,000.00,022.4,021.9,000.0,030.7,024.2,18.6,0000.0,0006.03,0017.42,0004.64
2024-03-23 18:38:00,SystemResetWarning,0820.5,5.01,000.00,022.4,021.9,000.0,030.7,024.2,18.4,0000.0,0006.10,0018.52,0004.64
2024-03-23 18:39:00,SystemResetWarning,0820.6,5.00,000.00,022.4,021.9,000.0,030.7,024.2,18.6,0000.0,0006.16,0018.18,0004.63
2024-03-23 18:40:00,SystemResetWarning,0820.6,5.00,000.00,022.4,021.9,000.0,030.7,024.3,19.1,0000.0,0006.21,0018.67,0004.62
2024-03-23 18:41:00,SystemResetWarning,0820.7,4.99,000.00,022.4,022.0,000.0,030.7,024.3,18.8,0000.0,0006.29,0020.41,0004.65
2024-03-23 18:42:00,SystemResetWarning,0820.9,5.00,000.00,022.4,022.0,000.0,030.7,024.3,18.8,0000.0,0006.40,0021.08,0004.68
2024-03-23 18:43:00,SystemResetWarning,0820.9,5.00,000.00,022.5,022.0,000.0,030.8,024.3,18.9,0000.0,0006.50,0021.39,0004.69
2024-03-23 18:44:00,SystemResetWarning,0820.7,5.01,000.00,022.5,022.0,000.0,030.8,024.3,18.5,0000.0,0006.45,0020.96,0004.69
2024-03-23 18:45:00,SystemResetWarning,0820.5,5.00,000.00,022.5,022.0,000.0,030.8,024.4,18.4,0000.0,0006.36,0020.88,0004.69
2024-03-23 18:46:00,SystemResetWarning,0820.4,5.01,000.00,022.5,022.1,000.0,030.8,024.4,18.6,0000.0,0006.33,0021.36,0004.69
2024-03-23 18:47:00,SystemResetWarning,0820.3,5.00,000.00,022.5,022.1,000.0,030.8,024.4,18.6,0000.0,0006.34,0021.30,0004.67
2024-03-23 18:48:00,SystemResetWarning,0820.2,5.00,000.00,022.6,022.1,000.0,030.8,024.4,18.7,0000.0,0006.31,0019.95,0004.64
2024-03-23 18:49:00,SystemResetWarning,0820.2,4.99,000.00,022.6,022.1,000.0,030.9,024.4,18.8,0000.0,0006.21,0019.31,0004.60
2024-03-23 18:50:00,SystemResetWarning,0820.2,5.00,000.00,022.6,022.2,000.0,030.9,024.5,18.4,0000.0,0006.15,0020.66,0004.58
2024-03-23 18:51:00,SystemResetWarning,0820.2,4.99,000.00,022.6,022.2,000.0,030.9,024.5,18.3,0000.0,0006.14,0020.42,0004.58
2024-03-23 18:52:00,SystemResetWarning,0820.2,5.00,000.00,022.6,022.2,000.0,030.9,024.5,18.1,0000.0,0006.10,0019.85,0004.55
2024-03-23 18:53:00,SystemResetWarning,0820.2,5.00,000.00,022.7,022.2,000.0,030.9,024.5,17.9,0000.0,0005.96,0018.94,0004.51
2024-03-23 18:54:00,SystemResetWarning,0820.3,5.01,000.00,022.7,022.2,000.0,030.9,024.5,18.1,0000.0,0005.78,0018.26,0004.47
2024-03-23 18:55:00,SystemResetWarning,0820.3,5.01,000.00,022.7,022.2,000.0,031.0,024.6,17.9,0000.0,0005.72,0018.16,0004.43
2024-03-23 18:56:00,SystemResetWarning,0820.3,5.00,000.00,022.7,022.3,000.0,031.0,024.6,18.0,0000.0,0005.72,0018.06,0004.40
2024-03-23 18:57:00,SystemResetWarning,0820.1,5.00,000.00,022.7,022.3,000.0,031.0,024.6,17.8,0000.0,0005.74,0017.33,0004.38
2024-03-23 18:58:00,SystemResetWarning,0820.1,5.00,000.00,022.8,022.3,000.0,031.0,024.6,17.9,0000.2,0005.75,0018.65,0004.36
2024-03-23 18:59:00,SystemResetWarning,0820.1,4.99,000.00,022.8,022.3,000.0,031.0,024.6,17.9,0003.1,0005.72,0018.56,0004.33
